Погода в Зелена-Гуре

Польша     51°56′13″N   15°30′20″E
темп.,
°C
ветер,
м/с
пор.,
м/с
влажн.,
%
обл.,
%
осадки,
мм/ч
давл.,
гПа
погр.,
м
2 марта, вт
вт201:00+2з11910 0.0 103622
04:00+2зюз12930 0.0 103522
07:00+1з22920 0.0 103523
10:00+7з24710 0.0 1035263
13:00+11сз23540 0.0 1035524
16:00+11зсз12570 0.0 1033349
19:00+6зсз11710 0.0 103422
22:00+5с00740 0.0 103322
3 марта, ср
ср301:00+4вюв12780 0.0 103322
04:00+3ю12850 0.0 103122
07:00+2ююз23820 0.0 103132
10:00+8юз25630 0.0 1029288
13:00+12зюз36510 0.0 1028667
16:00+12зюз37570 0.0 1025733
19:00+7зюз37800 0.0 1023157
22:00+7зюз388425 0.0 1021208
4 марта, чт
чт401:00+7зюз4128712 0.0 1020376
04:00+6з4119434 0.0 1018447
07:00+5з5119455 0.0 1017474
10:00+8з6117214 0.0 1016696
13:00+10зсз586050 0.0 10151063
16:00+6ссз467299 0.0 1014783
19:00+4ссз3579100 0.2 1015689
22:00+2с4795100 0.2 1017490
5 марта, пт
пт501:000ссв5889100 0.5 1018572
04:00−1ссв488296 0.0 1019495
07:00−2с268249 0.0 1021315
10:00+2с34540 0.0 10221267
13:00+4сз454230 0.1 10232003
16:00+4ссз4646100 0.1 10241792
19:000ссз3105586 0.3 1027371
22:00−2ссз38690 0.0 1029306
6 марта, сб
сб601:00−2сз25730 0.0 1031178
04:00−2зсз26690 0.0 1031229
07:00−2з36680 0.0 1032229
10:00+2з46440 0.0 1033913
13:00+4з46340 0.0 10321460
16:00+4з47370 0.0 10301317
19:000зюз310570 0.0 1029251
22:000зюз412560 0.0 1028358